Wind_Speed
48 48 49 49 49 50 50 49 49 48 47 46 45 44 43 43 42 41 40 38 37 36 36 35 34 34 33 33 32 32 31 30 30 29 29 28 27 27 26 26 26 25 25 26 26 26 25 25 24 24 24 23 23 23 23 23 23 22 22 22 21 20 19 18 18 17 17 16 16 16 16 16 17 18 19 19 19 19 17 14 14 15 14 15 16 15 15 15
49 49 49 50 50 51 51 51 50 50 50 49 48 47 46 45 44 43 42 41 39 38 38 37 36 35 34 34 33 32 32 31 31 31 30 29 29 29 28 28 27 27 27 27 27 26 26 25 25 24 24 23 23 23 23 23 23 23 22 22 22 21 20 19 18 18 17 18 17 16 16 17 17 18 19 20 20 20 19 17 16 16 15 16 17 17 16 16
50 50 50 50 50 51 51 51 51 51 51 51 50 49 48 47 46 45 44 43 42 41 39 38 38 37 36 35 35 34 33 33 32 32 31 31 30 30 29 29 29 28 28 28 28 27 27 26 25 25 24 24 23 23 24 24 23 23 23 23 22 21 21 20 19 18 18 19 18 17 17 18 18 18 19 20 21 21 20 19 18 17 16 17 18 18 18 17
51 51 51 50 50 51 51 52 52 52 52 52 52 51 50 49 48 47 47 45 44 43 42 41 40 39 38 37 37 36 35 34 34 34 33 32 32 32 31 31 30 30 30 29 28 28 27 27 26 26 25 25 24 24 24 24 24 23 23 23 22 21 22 21 20 19 19 19 19 19 19 19 19 19 19 19 21 22 21 21 21 19 18 18 18 19 18 19
52 52 52 51 51 51 52 52 52 53 53 53 53 52 52 51 50 49 49 48 47 45 44 43 42 41 41 40 39 39 37 37 37 35 35 34 34 33 33 32 32 31 31 30 29 29 28 28 28 27 27 26 26 26 25 25 24 24 24 24 22 22 22 21 20 20 20 20 20 20 20 20 20 20 20 20 21 22 22 22 22 21 20 20 20 20 19 19
54 53 53 52 52 52 52 52 52 53 53 53 53 52 52 52 51 51 50 50 49 48 46 45 45 44 43 42 41 40 39 39 39 37 37 36 35 35 35 34 34 33 32 32 31 30 30 29 29 28 28 27 27 27 26 25 25 25 26 25 23 23 23 22 21 21 21 21 22 22 22 22 21 22 21 21 22 23 24 24 23 23 22 22 22 22 21 21
55 54 54 53 53 53 52 52 52 52 52 53 53 53 53 52 52 52 51 51 50 49 49 48 47 46 45 44 43 42 41 42 41 39 39 38 37 37 36 36 35 34 34 33 33 32 31 30 30 30 29 29 28 28 27 26 26 26 27 25 24 24 24 23 22 22 22 22 23 23 23 22 23 23 23 23 23 24 25 25 24 24 24 24 24 24 23 23
57 56 55 54 54 53 53 52 52 52 52 52 52 52 52 52 52 52 52 52 51 51 50 50 49 48 47 46 45 44 43 44 43 41 41 40 40 39 38 37 37 36 36 35 34 33 32 32 32 31 31 31 30 30 29 28 27 28 27 27 26 25 25 24 24 23 23 23 24 24 23 23 24 24 25 25 24 25 27 27 26 25 25 25 25 26 25 25
57 56 56 55 54 54 54 53 53 53 52 52 52 52 52 52 52 52 52 52 52 52 52 52 51 50 49 48 47 46 46 46 45 44 43 42 42 41 40 39 38 38 37 36 35 34 34 33 33 33 32 33 32 31 31 30 30 29 28 28 27 27 26 26 25 25 25 25 25 25 24 25 25 25 28 27 26 28 28 28 28 27 26 26 26 27 27 26
57 56 56 55 55 54 54 54 54 53 53 53 52 52 52 51 52 52 52 53 53 53 53 53 52 52 51 50 49 49 49 48 46 46 45 44 44 43 42 41 40 39 39 38 37 35 35 35 35 34 34 35 34 33 33 32 31 31 29 29 29 29 28 27 27 27 27 27 27 27 25 26 27 26 29 29 28 30 30 29 29 28 28 27 27 28 28 28
58 57 56 55 54 54 54 54 54 54 53 53 53 52 52 52 52 52 52 52 53 53 53 54 53 53 53 52 51 51 52 49 47 48 47 46 45 44 43 42 41 41 40 39 38 37 36 36 37 36 36 36 35 35 35 34 33 32 31 31 31 30 30 29 30 30 30 30 29 28 27 28 28 28 31 31 30 31 31 31 31 30 29 29 29 29 29 29
59 58 57 56 55 54 53 53 53 54 54 53 53 52 52 52 52 52 52 52 52 53 53 54 54 54 54 53 53 54 53 51 49 50 50 48 46 46 45 44 44 43 42 41 40 39 38 38 38 37 38 38 37 38 37 35 35 34 33 32 32 31 31 32 33 32 32 32 31 29 28 29 30 31 32 31 31 32 32 32 32 31 31 30 31 31 31 31
60 59 59 57 56 55 54 53 53 53 53 53 52 52 52 51 51 51 51 52 52 52 52 53 53 54 54 53 54 55 54 52 51 51 51 49 48 47 47 46 46 45 44 43 42 41 40 40 40 39 40 39 39 39 38 38 37 36 34 34 34 32 32 34 36 35 33 33 33 30 29 29 31 34 33 32 32 33 33 33 33 33 33 33 33 33 33 33
62 62 60 59 58 57 56 55 54 53 53 53 52 52 51 51 50 50 50 51 51 51 52 52 52 52 52 53 55 55 55 53 52 52 52 50 49 48 48 48 48 47 47 45 44 43 42 42 41 41 41 41 40 40 40 40 40 39 36 36 36 34 34 37 39 37 35 35 34 33 31 30 32 36 36 34 33 34 35 35 34 34 34 35 35 35 35 34
62 63 63 61 60 59 59 59 58 57 55 55 54 54 53 52 51 51 50 50 50 50 51 51 51 51 50 51 54 56 54 53 53 53 52 50 50 50 51 50 49 49 48 47 46 45 44 44 43 42 43 43 42 42 43 41 42 42 38 37 38 39 38 39 39 40 38 37 36 34 33 32 34 37 38 37 35 34 36 36 35 35 35 36 36 36 36 36
62 63 64 64 63 62 61 61 61 60 59 58 58 57 57 56 55 54 52 52 51 50 50 50 50 50 49 50 53 55 54 53 53 53 51 51 52 52 52 52 51 51 50 49 48 47 46 45 45 44 44 45 44 45 45 43 44 44 39 39 42 43 42 40 40 42 42 40 39 36 34 34 35 37 39 39 37 36 36 36 36 36 36 37 38 38 37 37
62 63 64 64 64 64 64 63 63 62 62 61 60 60 59 58 58 57 55 54 53 52 51 50 51 51 49 50 52 53 53 53 53 52 52 53 53 54 54 53 53 53 51 51 50 49 49 47 47 46 45 47 48 48 46 44 45 44 41 43 46 45 44 42 41 43 45 44 40 36 36 35 35 37 40 40 38 36 35 36 36 36 37 38 38 38 39 39
62 63 64 64 64 65 66 66 65 64 63 63 62 61 61 60 59 58 57 56 55 55 54 53 53 51 49 50 51 53 54 53 52 53 54 54 54 54 54 54 55 55 53 53 53 52 51 49 48 47 47 51 52 49 46 46 47 44 43 45 47 47 46 45 42 42 45 45 41 36 36 38 36 37 40 40 39 37 36 37 38 37 37 39 39 39 39 40
63 63 64 64 64 65 66 67 67 66 66 64 63 63 63 62 61 60 59 58 57 57 57 55 54 52 50 50 52 53 55 54 53 54 54 55 55 54 55 56 56 56 55 55 55 54 52 50 49 49 52 54 53 49 47 48 47 44 46 47 47 48 49 48 44 42 44 45 43 38 37 39 39 38 40 41 41 39 38 39 39 39 39 40 40 41 41 41
65 64 64 65 65 65 65 66 67 67 66 65 65 65 64 63 63 62 62 61 60 60 58 55 55 54 51 51 53 54 56 56 54 54 55 55 55 55 56 57 57 57 57 58 56 54 54 51 50 53 56 56 52 50 50 50 48 46 49 49 47 48 50 51 46 42 44 44 43 41 39 40 42 41 39 43 44 41 40 41 41 42 42 43 43 43 43 43
67 66 65 64 65 66 66 66 66 66 66 65 65 65 64 64 65 64 64 64 63 61 59 56 56 56 52 52 54 55 56 55 55 54 55 55 55 56 57 57 58 58 59 59 55 55 56 52 52 56 58 56 53 53 53 52 50 49 51 51 49 49 51 53 48 45 46 45 43 43 42 41 44 43 40 44 47 43 43 43 43 45 45 46 46 45 45 45
70 68 66 65 65 66 66 66 66 66 65 65 65 65 65 65 66 65 65 64 63 62 61 58 57 55 55 54 53 54 54 53 53 54 54 54 55 55 57 58 58 59 61 58 55 57 57 54 54 58 57 56 56 55 54 54 53 52 52 52 52 52 53 53 50 48 47 46 45 45 43 42 45 46 43 46 47 45 45 45 45 46 47 47 47 47 46 46
70 70 70 67 65 66 66 66 66 65 65 65 65 66 66 66 66 66 65 64 63 63 62 60 58 55 55 53 53 54 52 50 51 53 53 53 55 56 57 58 58 59 60 57 57 58 56 55 56 57 57 57 58 58 55 54 54 53 54 53 53 54 55 54 52 49 47 48 48 46 44 43 45 46 46 47 47 47 47 46 46 47 47 48 48 47 47 47
72 72 72 70 68 66 65 66 65 65 66 66 66 67 67 66 66 66 66 65 63 62 62 61 59 56 55 54 54 55 52 51 51 52 54 55 56 58 57 58 59 60 59 58 59 58 55 56 56 56 59 60 59 59 56 55 54 54 55 54 54 55 56 55 53 49 47 49 49 48 45 42 46 47 45 48 49 48 49 48 48 48 48 48 48 48 48 48
77 75 74 73 70 67 67 65 63 65 67 66 68 69 69 67 67 67 68 67 63 60 61 61 60 58 57 55 55 57 55 53 53 52 55 57 58 58 58 58 59 59 60 60 59 57 56 56 56 55 58 61 61 58 57 57 57 56 55 55 55 56 57 57 55 50 47 50 50 50 47 43 46 48 46 49 51 49 50 49 49 49 49 49 49 49 49 49
78 78 77 75 72 70 70 66 65 67 66 66 69 71 71 70 71 70 70 71 64 58 60 61 62 60 56 55 57 61 58 52 54 54 55 59 59 59 59 59 59 59 61 61 58 55 55 57 57 56 56 59 61 59 58 59 59 58 56 57 56 57 58 58 57 52 48 50 51 49 49 46 45 47 48 51 52 50 50 51 50 51 50 50 50 50 51 51
76 78 79 78 74 71 69 68 70 69 66 67 70 72 71 72 74 72 73 74 62 54 58 60 62 61 58 57 60 63 59 52 56 57 56 59 60 60 60 58 59 59 61 62 56 53 55 57 57 55 55 58 59 60 61 60 60 60 58 59 58 58 59 59 58 55 51 52 51 48 50 48 46 48 50 51 53 53 52 52 52 52 51 51 51 52 53 53
79 79 81 80 76 72 69 70 71 69 68 71 72 72 71 72 75 74 77 76 59 50 56 58 61 63 61 62 63 63 59 55 58 59 58 61 60 59 58 57 58 58 60 61 55 53 56 56 56 56 56 57 58 60 61 61 61 60 60 60 60 59 59 59 59 58 56 53 49 48 51 51 48 50 52 51 52 55 55 54 54 53 52 53 54 54 55 55
82 83 84 82 79 76 74 72 70 70 72 74 74 74 74 75 75 76 80 75 58 52 57 58 61 63 63 64 64 64 63 60 61 61 62 63 61 60 58 58 59 58 58 59 56 55 56 55 55 56 56 56 57 58 60 60 60 60 61 61 61 61 60 61 60 59 58 52 48 51 56 56 50 49 52 52 53 56 56 56 55 55 55 55 56 56 57 57
87 87 87 85 83 81 78 74 72 74 77 78 78 77 78 79 78 79 80 71 59 59 61 61 62 62 63 64 64 65 66 64 64 63 64 65 64 64 61 60 61 59 58 58 57 57 57 55 54 54 54 54 55 55 56 58 58 59 61 61 62 62 60 61 60 59 57 51 50 55 59 60 52 47 51 53 55 58 57 57 57 56 57 57 58 58 59 58
92 91 90 86 83 83 81 78 76 79 81 82 82 81 83 84 83 83 78 66 63 66 65 63 63 61 62 64 65 67 67 66 66 66 67 67 66 66 65 63 63 62 60 57 57 58 57 56 54 53 53 53 54 55 56 57 58 59 61 61 62 61 60 59 58 57 55 52 54 58 61 60 51 48 53 53 55 60 58 58 59 58 58 59 59 60 59 59
95 93 91 87 85 84 83 80 80 83 85 84 84 85 86 88 89 85 75 68 69 69 66 63 62 62 64 65 66 67 67 67 68 69 70 70 69 68 67 65 65 65 62 58 57 57 56 56 57 54 53 54 57 58 57 58 59 60 60 61 61 60 59 57 56 56 55 54 56 58 60 58 50 50 56 55 56 61 60 58 59 59 59 59 60 60 60 60
95 95 93 90 86 84 83 83 84 86 86 86 86 87 88 91 90 83 76 74 75 71 66 64 63 63 65 66 67 68 69 70 69 71 72 72 71 69 68 66 65 66 65 62 59 58 57 57 58 57 56 58 59 59 59 59 60 60 60 61 61 61 59 57 57 58 57 56 56 57 57 54 51 54 59 56 56 60 60 59 59 59 60 60 61 61 61 61
93 94 93 91 89 86 85 85 85 86 86 86 87 87 90 93 89 81 79 80 79 73 68 67 66 64 63 66 68 69 72 72 70 72 73 73 72 70 68 67 66 67 67 66 61 59 60 59 59 60 60 60 60 61 61 61 60 60 61 61 60 59 60 60 60 60 59 58 56 56 55 53 53 56 59 58 57 58 60 61 61 60 61 61 61 62 62 62
91 92 93 93 93 90 88 87 86 87 88 87 88 89 91 92 85 81 81 81 80 77 72 71 71 69 65 65 67 69 73 73 72 73 74 73 72 69 66 66 67 68 69 69 65 63 63 62 60 60 61 61 61 63 63 61 60 61 62 61 59 59 62 64 62 60 60 59 55 55 55 55 56 56 58 59 58 59 60 62 62 62 61 62 62 62 63 63
91 91 92 94 95 92 89 88 88 90 91 90 91 93 92 86 81 80 82 81 82 81 77 75 76 75 72 69 67 69 72 72 73 74 74 73 70 67 65 65 68 71 70 70 70 67 65 62 60 59 59 60 62 64 64 62 60 61 62 61 61 62 64 64 62 61 62 59 54 54 56 58 58 56 56 59 60 61 62 63 63 63 63 64 64 64 64 64
93 93 93 93 93 94 92 90 91 93 93 94 97 97 93 87 83 82 82 82 83 82 81 80 80 79 78 75 71 69 72 72 72 72 72 72 70 66 66 67 69 71 70 71 72 70 66 63 59 58 59 60 62 64 64 62 60 60 62 63 64 65 64 65 63 62 62 60 55 54 56 58 59 57 58 61 62 64 65 64 64 64 65 66 66 65 64 63
95 95 95 92 92 95 94 92 93 95 96 98 100 100 96 91 88 86 85 85 85 84 84 83 82 81 80 80 76 73 74 73 72 71 72 72 70 68 69 70 69 70 71 73 73 71 69 66 61 60 60 61 64 65 64 62 61 62 63 64 64 64 64 65 65 62 62 61 57 56 57 57 58 59 61 62 63 64 65 65 65 65 66 66 66 66 65 65
96 98 97 94 94 96 94 92 93 96 99 102 103 101 97 93 92 92 91 89 88 87 86 84 84 84 82 81 80 78 78 76 73 73 73 72 72 71 71 72 71 71 72 74 73 72 73 71 66 63 62 64 66 66 66 66 65 65 64 63 63 63 64 65 65 63 63 61 58 58 58 57 59 62 63 62 63 64 65 65 66 67 68 68 68 68 67 67
97 99 97 96 97 97 96 94 95 99 102 104 104 101 98 96 96 95 94 92 91 90 88 86 87 87 84 83 81 81 82 80 76 75 75 75 74 73 72 72 72 72 73 73 73 74 76 74 71 68 65 65 66 67 68 69 69 68 66 65 64 65 66 66 65 64 64 63 61 61 60 60 61 63 62 62 63 65 66 67 68 69 70 70 70 70 70 70
98 99 97 98 100 100 100 100 101 104 106 106 104 101 100 100 99 97 96 96 95 93 91 90 90 89 87 86 84 82 83 82 80 78 77 76 76 75 73 73 72 72 73 73 72 74 77 77 75 71 68 67 67 68 70 71 71 70 68 68 67 68 69 69 67 66 68 68 65 65 62 60 62 62 62 63 64 65 67 68 68 70 71 72 72 73 73 73
101 101 98 100 102 102 103 105 106 107 107 105 102 101 101 101 100 98 97 98 97 96 94 93 92 91 90 89 87 85 84 83 83 82 79 77 78 78 76 75 74 74 74 73 72 74 77 78 75 72 69 68 68 69 70 71 71 71 69 69 69 70 71 72 70 71 72 70 68 69 65 59 60 63 63 64 65 66 67 67 68 70 71 72 73 74 75 75
102 101 100 101 103 104 105 107 110 110 108 104 102 102 102 101 100 100 99 99 99 98 97 95 94 93 93 92 91 89 87 85 84 83 82 81 80 80 78 77 76 76 76 76 75 76 78 78 75 73 71 68 67 67 68 69 70 70 69 69 71 72 72 74 74 74 73 70 69 72 68 61 61 63 64 65 66 67 68 68 69 70 71 73 75 76 77 77
103 102 101 101 103 105 106 107 110 111 109 106 104 103 103 102 101 100 100 100 100 100 99 98 97 97 96 96 94 92 91 89 86 84 84 84 82 81 80 78 79 80 80 79 79 79 80 79 78 77 74 69 66 66 67 68 70 70 70 71 72 73 74 75 74 76 74 69 70 73 69 63 64 66 66 66 66 68 70 70 71 72 74 76 78 79 79 79
103 103 103 102 103 106 107 107 107 107 108 107 105 103 102 102 102 102 101 101 101 101 101 99 99 99 99 98 97 95 93 90 89 87 85 84 83 82 81 80 82 83 83 83 83 82 81 81 80 79 76 71 68 68 68 70 71 72 71 71 72 73 75 75 75 77 75 70 72 73 68 65 67 68 69 69 70 72 73 75 76 77 79 81 83 84 84 84
102 104 103 102 103 105 107 107 107 106 106 106 105 104 102 102 103 104 103 102 101 101 100 98 97 96 94 92 92 91 90 89 89 88 85 83 83 83 82 83 84 85 84 85 85 84 83 83 81 79 77 74 71 71 70 69 70 70 70 71 72 72 74 76 77 76 72 72 75 74 71 71 71 72 73 74 75 77 79 80 81 82 84 86 88 89 90 90
102 104 103 100 99 101 103 104 106 107 106 106 105 103 102 101 101 103 103 101 98 96 94 92 88 85 83 80 80 80 82 83 84 84 82 81 82 83 83 84 85 85 84 85 85 85 85 83 81 80 79 76 74 73 71 69 68 68 69 70 71 72 74 78 78 74 73 77 78 73 74 77 76 76 78 78 80 82 83 85 86 88 89 91 92 94 94 94
104 103 103 101 97 96 97 97 98 100 101 102 103 101 100 98 98 99 99 97 93 90 89 88 84 81 79 77 77 78 79 80 79 78 78 79 79 80 81 81 83 83 83 84 84 84 84 82 80 81 81 77 75 74 71 69 69 69 69 70 71 73 75 78 77 75 76 80 79 75 77 78 78 81 82 82 84 87 87 89 91 93 94 95 96 98 98 98
110 105 104 104 100 95 93 92 92 94 95 97 98 98 96 94 94 94 93 92 90 88 89 89 87 84 82 80 81 82 82 82 80 77 78 79 78 78 78 77 78 80 81 82 83 83 83 80 78 81 81 78 77 75 72 72 72 71 71 71 72 74 77 79 78 77 78 80 78 77 79 78 80 84 85 84 87 89 90 92 93 95 97 98 100 100 100 100
115 110 107 108 106 99 94 93 95 96 96 96 96 95 93 91 91 92 92 92 92 91 92 91 90 88 86 86 86 85 84 83 83 82 83 82 79 78 78 77 76 77 79 80 81 82 82 80 78 80 81 79 78 77 76 77 77 77 76 74 74 77 79 80 78 78 80 79 77 79 81 79 81 84 85 85 87 89 91 92 92 94 95 97 98 98 97 98
119 116 112 110 110 107 101 97 97 97 97 97 96 94 91 89 89 91 93 94 95 95 95 93 92 91 91 91 90 88 86 86 85 84 84 84 82 80 79 78 77 78 78 79 80 80 80 79 78 80 81 80 78 80 81 81 82 83 80 77 78 83 83 81 80 80 81 80 79 81 82 81 81 84 85 85 86 87 89 89 90 91 92 93 94 95 96 98
121 120 117 114 113 113 109 102 100 99 98 96 94 93 92 90 89 91 94 95 95 96 97 95 95 95 95 93 91 90 90 90 87 83 81 80 80 80 79 78 78 79 79 79 80 79 79 79 79 81 83 81 79 81 82 83 86 85 79 77 82 88 89 87 86 85 84 83 83 84 83 83 84 85 86 87 88 89 90 91 92 92 93 95 97 99 100 101
Wind_Direction
234 234 233 232 232 232 232 232 233 233 234 234 235 236 237 238 239 240 240 241 241 242 243 243 244 244 246 247 248 249 250 251 252 253 254 255 255 256 256 257 257 256 257 258 258 259 260 261 262 263 264 265 266 267 268 268 268 268 268 268 267 266 266 264 264 264 265 265 264 264 265 264 264 265 267 269 271 273 277 278 279 284 288 288 287 285 284 286
234 235 234 234 233 233 233 233 234 234 234 235 236 236 237 238 239 240 241 241 241 242 243 244 245 245 246 248 249 250 251 252 253 254 255 255 256 257 257 257 257 256 257 258 259 259 260 260 261 262 263 265 265 266 267 267 268 268 268 268 268 268 267 266 266 266 266 266 266 265 264 264 264 265 267 270 272 273 276 278 277 280 283 284 285 285 281 279
234 235 235 235 235 235 235 235 235 235 235 236 236 237 238 239 239 240 241 242 242 242 243 244 245 246 247 249 250 252 252 253 254 255 255 256 257 257 258 258 257 257 258 259 260 260 261 262 262 262 263 264 265 265 266 267 268 269 269 268 268 269 269 269 269 268 268 267 267 266 265 264 265 266 267 271 273 274 278 279 276 276 277 277 280 283 282 277
235 235 236 236 236 236 236 236 236 236 237 237 237 237 238 239 240 241 242 243 243 243 244 244 245 246 247 249 250 252 253 254 255 255 256 256 257 257 258 258 258 258 259 260 261 261 262 263 263 263 263 264 264 265 265 267 268 269 268 268 269 269 269 270 269 269 268 268 268 267 265 265 265 266 267 270 272 275 278 279 278 277 275 274 274 277 278 276
235 236 236 236 236 237 237 237 237 237 237 238 238 239 239 239 240 241 242 244 244 245 245 245 246 246 247 248 250 251 252 254 255 255 256 256 257 257 257 258 258 259 260 261 262 262 262 262 263 263 263 264 264 265 266 267 268 269 268 268 268 268 268 268 268 268 268 267 267 266 266 267 267 268 268 269 270 274 277 277 277 277 275 274 273 273 272 271
235 236 237 237 237 237 237 237 238 238 238 238 239 239 240 240 241 242 243 244 245 245 246 247 247 248 249 250 251 252 252 254 254 255 256 256 257 257 257 258 258 259 260 261 261 262 262 262 263 263 264 264 265 265 266 267 267 268 267 268 268 268 267 267 267 266 266 266 265 265 265 267 268 269 270 270 270 273 275 275 276 277 277 275 274 272 269 267
234 236 237 238 238 239 239 239 239 239 239 239 240 240 241 241 241 242 243 245 246 246 247 248 248 249 250 251 252 252 253 254 254 254 255 256 257 257 257 258 259 259 260 261 262 261 262 262 263 263 264 264 265 265 265 266 266 266 267 268 268 268 268 267 266 265 264 264 264 264 265 267 268 269 269 269 270 271 273 273 274 276 278 278 277 274 271 267
234 236 237 238 239 239 240 240 240 240 240 240 241 241 242 242 243 243 244 245 246 247 248 249 249 250 250 250 251 252 253 253 254 255 255 256 257 258 258 259 259 260 261 262 262 262 262 262 263 263 263 264 264 264 264 265 264 264 266 268 267 267 267 266 266 264 263 261 261 262 264 266 267 269 269 267 268 268 268 270 272 273 275 277 278 277 276 273
235 236 237 238 239 240 240 241 242 242 242 242 242 242 243 243 244 245 245 245 246 248 249 250 250 251 251 251 251 252 253 253 255 256 256 257 258 258 259 259 260 260 261 261 261 262 262 262 263 263 263 263 264 264 265 264 264 264 265 266 266 265 265 266 265 263 262 260 260 261 261 263 265 267 268 267 267 267 268 269 270 271 271 273 275 276 276 275
236 236 237 239 240 241 241 241 242 243 244 244 244 244 244 244 245 245 246 246 247 247 249 250 251 251 252 252 252 253 253 253 255 256 256 257 258 259 259 260 260 260 261 261 261 261 261 262 262 262 262 263 263 264 264 264 265 265 265 265 266 265 265 265 264 263 262 261 261 261 261 262 263 263 265 266 266 267 268 270 270 270 270 271 272 272 273 274
236 237 238 239 241 241 242 242 242 243 245 245 246 246 246 246 246 246 247 247 247 248 248 249 250 251 252 252 253 254 254 254 255 257 257 257 258 259 259 260 260 261 261 261 261 261 260 261 261 261 261 262 263 263 264 264 265 265 264 264 265 265 266 265 264 263 262 263 262 263 263 264 263 262 263 265 266 267 269 270 270 271 271 271 271 271 271 271
237 237 238 239 241 242 243 243 243 243 244 245 246 247 247 247 247 247 247 247 248 248 248 249 249 250 251 252 253 253 254 254 255 257 257 257 258 259 260 260 260 260 261 261 261 260 260 260 260 260 260 261 262 263 264 264 264 264 264 264 265 265 266 266 265 264 263 264 264 264 264 265 265 264 264 265 266 267 268 270 271 272 272 272 271 271 271 271
238 238 238 239 240 242 243 243 243 243 244 245 246 247 248 248 249 249 248 248 248 248 249 249 249 250 251 252 253 253 254 254 255 256 257 258 258 259 260 260 261 261 261 261 261 261 260 260 260 260 260 260 261 263 264 264 263 263 263 264 265 266 267 266 265 265 266 267 267 266 264 264 266 266 265 266 267 268 269 270 271 273 274 273 273 272 272 273
238 238 238 238 239 240 242 243 243 244 244 244 245 246 247 248 249 250 250 250 250 250 249 250 250 250 250 251 253 253 254 254 255 256 257 258 259 259 259 259 260 261 261 261 261 261 261 260 260 260 260 260 260 262 262 262 263 263 263 264 266 266 265 265 267 267 267 267 267 266 265 265 267 268 267 266 266 268 270 271 273 274 275 275 275 275 274 274
237 238 239 239 239 240 241 242 243 243 244 244 245 246 247 248 249 250 251 252 252 252 252 251 251 251 251 252 253 253 253 254 254 255 256 257 258 258 258 258 259 260 261 261 261 261 261 260 260 259 260 260 260 260 260 261 263 263 263 265 266 265 263 264 269 270 268 267 267 267 267 266 266 268 270 269 268 269 270 272 274 275 275 275 275 275 275 275
237 237 238 239 240 240 241 242 243 243 244 244 245 246 246 247 248 249 250 251 252 253 253 253 252 252 251 252 253 253 254 253 254 255 256 256 257 257 258 258 259 259 260 261 261 261 261 260 260 259 260 261 259 259 259 260 262 264 265 265 264 264 265 265 267 270 270 268 268 269 269 267 267 268 269 270 270 270 271 273 274 274 274 274 274 275 275 275
237 237 237 238 240 240 241 242 243 244 244 244 245 245 246 246 247 248 249 250 250 251 252 252 252 251 251 252 254 255 254 254 254 255 255 255 255 256 257 258 259 259 260 260 261 261 260 260 261 261 261 261 259 258 259 260 262 264 266 265 264 264 266 266 266 269 270 270 269 271 271 269 268 268 270 271 271 271 272 273 273 272 273 272 273 273 274 275
238 237 237 238 239 240 241 241 243 243 244 245 245 246 246 246 246 247 248 249 249 250 250 251 251 251 251 252 254 255 255 254 254 254 254 255 255 256 258 258 259 259 260 260 260 260 260 260 261 262 262 261 259 259 261 261 262 263 265 265 267 267 266 264 264 267 269 270 270 269 271 271 269 268 270 272 273 273 273 273 272 272 273 273 273 273 273 275
238 238 238 238 238 239 240 241 242 243 244 245 245 246 246 246 246 247 248 249 249 250 250 250 251 252 251 252 253 254 255 254 253 253 254 255 256 257 257 258 259 259 259 260 260 260 260 261 262 262 261 260 261 262 263 262 263 265 264 264 266 269 268 266 263 264 267 269 270 269 268 269 269 269 271 273 273 273 274 273 273 273 273 273 272 273 273 274
238 239 239 239 239 240 240 241 242 243 244 245 246 246 247 247 247 247 247 248 248 249 249 250 251 252 251 252 253 253 254 255 254 255 255 256 256 256 257 257 258 259 259 259 259 260 261 260 261 262 261 261 262 264 264 263 264 264 264 265 265 267 269 268 266 265 265 266 268 269 267 268 268 267 269 272 271 271 272 273 274 274 273 273 273 273 273 274
239 239 239 239 240 241 241 242 242 244 245 246 247 247 248 248 248 248 248 248 248 249 250 250 250 252 251 251 253 254 255 256 257 257 257 257 258 258 258 258 259 260 260 259 260 261 261 260 261 261 262 263 264 264 264 264 264 263 265 266 266 265 267 269 269 268 268 267 267 267 267 268 269 268 267 269 270 271 271 271 272 273 272 273 273 273 274 274
239 238 238 239 239 240 242 243 244 245 245 246 247 247 248 248 248 248 248 248 249 249 250 250 251 252 252 251 253 255 256 257 259 259 259 259 260 260 260 260 260 260 260 261 261 261 261 261 261 262 263 265 264 263 263 265 264 263 264 265 266 266 266 267 268 268 268 269 267 266 267 266 268 270 269 268 270 271 271 270 270 271 271 272 273 273 274 274
239 239 238 238 238 239 240 242 244 245 247 247 247 247 247 247 248 248 248 247 248 249 249 250 252 253 254 254 254 255 256 258 260 261 261 260 260 259 259 260 260 259 261 261 261 260 261 262 262 263 264 264 264 264 263 264 265 265 265 264 266 266 266 266 267 268 269 269 268 267 267 268 268 269 270 270 270 270 270 270 270 270 271 272 272 273 274 274
237 239 239 238 238 238 239 240 242 244 246 247 247 247 246 246 247 247 247 246 246 248 249 250 251 252 254 254 254 254 255 257 259 260 261 260 258 258 258 259 259 259 260 259 260 260 261 262 263 265 265 264 264 265 265 264 264 265 265 265 265 265 266 266 266 266 268 269 269 269 267 268 270 269 270 271 270 270 270 270 270 270 271 271 272 273 273 274
236 237 238 239 239 239 239 239 240 243 244 245 247 246 245 245 246 247 247 246 244 246 249 250 250 250 252 253 255 254 253 254 257 259 261 260 258 258 258 257 258 259 259 258 259 260 261 262 262 263 265 266 265 265 266 265 264 263 264 265 265 266 266 267 267 266 266 268 269 270 270 268 270 272 272 271 270 270 271 271 271 271 271 272 272 273 273 273
238 238 238 239 240 241 241 240 240 241 242 244 245 245 245 245 246 246 247 247 244 244 248 250 251 250 251 253 254 254 251 252 256 257 259 260 260 258 257 257 258 259 260 259 258 260 262 262 261 260 262 265 267 266 265 266 265 264 264 264 265 266 267 267 267 267 266 266 267 270 272 271 270 272 271 271 271 271 271 272 271 271 271 272 273 273 273 273
238 239 239 238 238 240 242 243 242 242 242 244 244 245 245 246 246 246 247 247 243 242 247 250 252 252 250 250 252 253 252 251 255 256 256 258 259 258 257 257 258 258 259 259 259 261 261 261 261 261 261 262 265 266 266 266 266 266 266 266 266 267 268 269 269 268 265 265 267 270 272 271 270 270 268 269 272 273 272 272 271 271 272 272 273 273 273 274
236 239 239 237 237 239 241 242 243 244 244 244 244 245 245 245 246 246 247 246 241 241 246 249 251 252 250 249 250 252 252 250 252 254 255 256 257 258 259 258 258 258 259 260 260 259 260 261 262 262 261 262 264 266 267 267 268 268 268 268 268 267 268 269 270 270 267 266 269 271 269 267 265 266 268 269 271 272 272 271 271 272 272 272 272 273 274 274
235 237 237 237 236 237 239 240 241 244 245 245 245 245 245 245 245 245 246 246 242 240 243 245 248 251 251 250 250 251 251 250 250 252 255 257 258 258 259 259 258 257 259 262 261 259 259 260 262 263 264 265 265 266 268 269 269 270 270 269 268 268 268 268 268 270 271 272 273 271 268 265 262 265 269 271 270 270 270 272 272 272 272 272 273 273 274 275
235 236 236 236 236 236 238 239 240 242 244 244 245 245 245 245 244 245 245 246 244 241 240 241 245 248 250 251 250 250 250 250 249 250 253 256 258 259 259 259 260 258 258 260 262 262 261 259 260 263 265 265 265 266 268 269 269 269 269 268 268 268 268 268 270 271 273 274 272 268 267 267 267 268 270 270 270 270 271 271 271 271 272 272 273 273 274 275
236 236 236 237 237 237 237 239 240 242 244 245 245 245 246 246 245 244 245 246 245 242 241 240 242 246 250 252 252 252 250 250 251 251 252 253 255 258 259 259 260 260 258 259 261 263 263 263 261 260 263 265 266 266 266 267 268 267 267 268 269 269 270 270 271 272 273 272 268 267 268 270 273 274 271 269 270 270 270 270 271 272 273 273 274 275 275 276
237 237 237 237 237 237 237 238 240 243 245 245 245 245 246 246 246 245 246 247 246 244 244 244 243 245 248 251 253 254 254 252 251 252 252 253 253 255 257 259 261 262 262 261 261 262 264 265 264 261 262 264 265 265 264 265 266 267 268 269 270 270 270 272 273 273 271 269 267 268 270 274 276 273 270 269 269 270 271 272 273 274 274 274 275 275 276 277
237 237 237 237 237 238 238 237 239 242 245 247 247 247 247 247 247 247 247 247 247 246 245 246 245 244 246 248 251 253 255 254 253 253 253 253 254 255 257 259 261 263 264 263 261 262 263 264 266 265 263 262 263 264 265 265 266 268 269 270 270 272 273 273 272 271 270 269 270 271 272 275 275 271 269 269 269 271 273 272 272 272 273 273 274 275 276 277
237 237 237 237 237 237 238 238 239 241 244 247 248 249 248 248 248 248 248 248 248 247 246 246 247 245 244 246 248 250 253 254 255 256 256 256 256 256 258 259 261 263 265 264 263 263 263 262 263 264 263 262 263 264 265 265 267 269 269 270 272 275 275 272 270 270 271 272 272 273 274 274 272 270 271 272 271 271 272 272 271 271 272 273 274 276 277 278
238 238 238 238 237 237 238 239 240 241 243 245 248 249 249 250 250 250 250 250 250 250 248 246 245 245 244 244 246 248 251 253 254 256 257 258 259 259 260 262 263 264 264 265 264 262 261 261 261 262 263 264 264 265 265 266 267 269 270 272 274 274 272 271 271 272 272 272 273 275 275 273 270 271 272 273 272 271 271 272 272 273 275 275 276 277 277 278
239 240 240 239 238 237 239 240 240 241 243 244 246 248 249 251 252 251 251 251 250 250 249 247 246 245 244 244 246 248 251 253 254 256 258 260 261 262 263 263 263 263 263 264 264 263 261 261 261 262 264 265 266 266 266 266 268 270 271 272 272 270 270 272 273 273 273 274 274 274 273 272 272 272 272 272 272 272 271 272 274 276 277 277 277 278 278 278
240 241 241 242 240 238 238 240 241 242 243 244 245 246 247 248 249 250 251 251 251 250 250 248 247 246 245 244 244 247 250 253 254 256 257 259 260 261 261 261 261 262 263 263 264 264 263 262 262 262 263 265 266 267 268 268 269 270 271 270 269 270 271 273 274 274 275 276 275 274 273 273 273 273 271 270 271 272 273 274 276 277 277 277 277 277 276 276
241 241 242 242 239 237 238 239 241 242 243 244 246 246 246 246 246 248 249 250 251 251 250 249 248 247 245 244 243 245 249 251 253 255 256 257 257 258 258 259 260 261 262 263 264 265 265 263 260 260 262 263 265 266 267 269 269 268 268 268 270 272 273 274 274 275 275 276 276 274 273 273 273 271 269 270 271 273 275 276 276 276 275 275 275 274 274 274
240 241 242 241 238 236 237 238 240 242 243 244 245 246 247 246 247 246 247 248 250 251 252 252 250 248 247 245 244 245 248 250 251 253 255 256 256 256 257 259 260 261 262 263 264 265 265 264 262 259 259 261 263 265 266 267 267 267 267 269 272 273 273 273 274 275 275 275 275 273 271 270 269 268 269 271 273 274 275 275 274 274 273 273 272 272 273 273
238 240 241 240 238 236 237 238 239 240 242 243 245 246 247 247 247 247 247 248 249 250 251 252 252 250 249 248 246 246 247 249 250 251 253 255 256 256 257 259 261 262 262 263 264 265 265 265 263 261 260 261 263 265 266 266 266 268 269 270 271 272 272 272 273 275 275 273 272 269 268 268 268 270 272 273 273 274 273 273 273 273 272 272 272 272 272 273
238 239 240 240 239 237 237 238 239 241 242 243 245 246 247 248 248 249 249 249 249 249 251 252 252 252 251 250 249 248 248 248 249 250 251 253 256 256 257 258 260 261 262 263 264 266 266 265 264 263 262 262 263 263 265 265 267 268 268 269 270 271 272 273 272 272 271 270 270 269 269 270 272 273 273 272 272 272 272 273 273 273 272 273 273 273 273 274
237 238 239 240 240 239 239 239 240 242 243 244 246 247 247 248 249 249 250 250 250 250 250 252 253 253 253 252 251 250 249 248 248 249 250 252 255 255 255 256 258 260 262 263 263 265 266 266 266 264 263 262 262 263 265 266 267 268 269 269 269 269 270 270 269 268 269 271 272 273 273 273 274 273 272 270 270 270 271 272 272 273 274 274 275 275 275 276
237 238 238 239 240 241 241 241 241 242 243 244 245 247 247 247 248 249 249 250 251 251 251 252 253 254 254 254 253 251 250 248 248 249 251 252 253 255 255 256 257 259 261 262 262 263 265 266 267 266 263 262 264 265 266 267 268 268 268 267 267 266 267 268 269 270 271 273 274 274 275 275 274 272 271 269 268 269 269 269 270 272 273 275 276 276 277 277
236 237 238 239 240 241 242 242 243 244 244 243 244 246 248 248 248 249 250 251 252 252 252 252 253 254 255 255 254 253 252 250 249 249 250 252 253 255 256 257 257 258 259 261 262 263 264 266 267 267 266 265 265 267 267 266 266 265 265 266 266 267 267 268 270 271 271 273 274 274 276 276 273 270 269 269 269 269 268 268 269 270 272 273 274 275 276 277
235 236 237 238 239 241 242 243 244 245 245 245 245 246 248 249 248 248 249 250 251 252 253 253 254 255 256 255 255 255 254 253 252 251 250 251 253 255 257 258 258 258 258 259 261 262 263 265 266 267 268 268 267 267 266 265 266 266 267 268 268 269 270 270 270 270 272 274 274 273 274 273 270 269 268 268 269 269 269 269 270 270 272 272 273 274 275 276
233 234 235 236 238 240 242 243 244 245 246 246 246 246 248 249 250 250 249 249 251 253 254 255 255 255 255 256 256 256 255 255 254 252 251 251 252 254 256 257 257 257 257 259 260 261 262 263 265 267 268 268 267 266 265 265 267 268 269 270 270 271 272 272 271 272 275 274 272 273 274 272 270 270 269 269 270 270 270 271 272 272 273 274 275 275 276 277
231 233 234 235 237 239 241 243 244 244 246 247 247 248 248 250 251 252 253 252 253 254 255 255 253 252 253 256 257 256 255 254 253 252 252 251 252 253 254 255 255 255 256 258 259 261 261 262 264 265 265 266 267 266 265 265 266 267 269 271 272 273 273 273 274 275 275 273 272 274 275 273 272 271 270 270 271 272 272 273 274 274 274 275 276 277 277 278
230 231 232 233 235 238 239 241 243 244 244 246 247 247 248 249 250 252 253 254 254 253 255 255 253 252 253 254 255 256 256 255 254 254 253 253 252 253 253 253 253 254 255 256 257 259 260 261 263 263 263 263 264 265 265 265 265 266 268 270 273 274 275 276 277 277 276 275 274 274 274 274 274 273 272 272 273 273 274 275 275 276 276 277 278 278 279 279
230 230 231 232 233 235 237 238 240 241 241 243 244 245 246 247 249 250 251 252 253 252 253 255 256 256 256 256 256 256 256 256 255 255 254 253 252 253 253 253 253 253 254 255 256 258 259 260 260 262 262 261 262 262 263 263 265 266 267 269 272 274 276 277 278 278 277 276 275 275 274 274 274 274 274 275 275 275 275 276 277 278 278 279 279 279 280 281
229 229 230 231 232 233 234 236 238 240 240 241 242 243 244 245 245 247 249 251 252 252 253 255 257 258 259 259 259 258 257 256 256 255 254 254 254 255 254 254 253 254 254 255 256 257 258 259 259 261 261 261 261 261 261 262 263 264 265 267 270 272 274 276 277 277 276 276 277 276 275 274 275 276 276 276 276 276 276 277 278 279 280 281 281 283 284 285
228 229 230 230 231 232 233 234 237 239 240 241 242 242 243 244 244 245 247 249 250 252 253 254 256 257 258 259 259 260 260 258 257 256 256 255 255 255 255 255 255 256 256 257 257 258 259 259 259 261 262 262 261 262 262 262 262 262 263 266 269 269 270 272 273 273 274 277 278 278 278 279 279 280 280 280 280 280 279 279 280 281 282 284 286 288 289 289
227 229 230 230 231 231 232 233 235 237 239 240 241 241 241 242 242 243 245 247 249 251 253 254 255 256 258 259 259 260 259 259 259 259 258 256 255 254 255 256 256 257 258 258 258 259 259 260 260 261 261 261 262 263 264 264 263 263 264 266 267 267 267 269 270 271 272 274 277 279 281 283 283 283 284 284 284 284 284 284 284 285 287 289 290 292 293 293
Height
10752 10754 10756 10757 10759 10761 10762 10764 10766 10768 10769 10771 10773 10774 10776 10778 10779 10780 10782 10784 10785 10786 10787 10788 10789 10790 10791 10792 10793 10794 10795 10796 10797 10798 10799 10799 10799 10800 10800 10801 10801 10801 10802 10802 10802 10802 10803 10803 10803 10804 10804 10804 10804 10804 10804 10804 10805 10805 10806 10806 10807 10808 10809 10810 10811 10811 10811 10811 10811 10811 10811 10810 10810 10809 10809 10808 10809 10809 10810 10811 10810 10810 10810 10810 10810 10810 10810 10809
10748 10750 10751 10753 10755 10756 10758 10760 10762 10763 10765 10767 10769 10770 10772 10774 10775 10777 10778 10780 10781 10783 10784 10785 10786 10787 10788 10789 10790 10791 10792 10793 10794 10795 10795 10796 10796 10797 10798 10798 10798 10799 10799 10799 10800 10800 10801 10801 10801 10802 10802 10802 10802 10802 10802 10802 10803 10803 10804 10804 10805 10806 10807 10808 10808 10809 10809 10809 10809 10809 10809 10809 10808 10808 10807 10806 10806 10806 10807 10809 10809 10809 10809 10808 10808 10808 10808 10808
10744 10745 10747 10749 10750 10752 10754 10756 10758 10759 10761 10763 10764 10766 10768 10770 10771 10773 10774 10776 10777 10779 10780 10781 10783 10784 10785 10786 10787 10788 10789 10790 10791 10791 10792 10793 10793 10794 10795 10795 10796 10796 10796 10797 10797 10798 10798 10799 10799 10799 10799 10800 10800 10800 10800 10800 10801 10801 10802 10802 10803 10804 10804 10805 10806 10806 10806 10806 10806 10807 10806 10806 10806 10806 10805 10805 10804 10804 10805 10806 10807 10807 10808 10807 10806 10806 10806 10806
10740 10741 10743 10744 10746 10748 10749 10751 10753 10755 10756 10758 10760 10762 10764 10766 10767 10769 10770 10771 10773 10774 10776 10777 10779 10780 10781 10783 10784 10785 10786 10787 10787 10788 10789 10790 10790 10791 10792 10792 10793 10793 10794 10794 10795 10795 10796 10796 10796 10796 10797 10797 10797 10797 10797 10798 10798 10799 10799 10799 10800 10801 10801 10802 10803 10803 10804 10803 10803 10804 10803 10804 10804 10804 10804 10804 10802 10801 10802 10803 10804 10804 10805 10805 10805 10805 10804 10804
10735 10737 10738 10740 10742 10743 10745 10747 10748 10750 10752 10754 10756 10758 10760 10761 10763 10764 10766 10767 10769 10770 10772 10773 10775 10776 10778 10779 10780 10781 10783 10783 10783 10785 10785 10786 10787 10788 10789 10789 10790 10790 10791 10791 10792 10792 10793 10793 10793 10794 10794 10794 10794 10795 10795 10795 10796 10796 10796 10797 10798 10799 10799 10800 10800 10800 10801 10801 10801 10801 10800 10801 10801 10801 10801 10801 10800 10799 10800 10801 10801 10801 10802 10802 10803 10803 10802 10802
10730 10732 10734 10736 10737 10739 10740 10742 10744 10746 10748 10749 10751 10753 10755 10757 10759 10760 10762 10763 10764 10766 10768 10769 10771 10772 10773 10775 10776 10778 10779 10779 10779 10781 10782 10783 10784 10784 10785 10786 10786 10787 10788 10788 10789 10789 10790 10790 10791 10791 10791 10791 10791 10792 10792 10793 10793 10793 10793 10794 10795 10796 10796 10797 10797 10798 10798 10798 10797 10798 10798 10798 10798 10798 10798 10798 10798 10797 10797 10798 10798 10798 10798 10799 10799 10800 10799 10799
10725 10727 10729 10731 10733 10734 10736 10738 10740 10741 10743 10745 10747 10749 10751 10753 10754 10756 10757 10759 10760 10762 10764 10765 10767 10768 10770 10771 10773 10774 10776 10775 10775 10778 10778 10779 10780 10781 10782 10782 10783 10784 10784 10785 10785 10786 10787 10787 10787 10788 10789 10788 10789 10789 10790 10790 10791 10790 10790 10791 10792 10793 10793 10794 10794 10795 10795 10795 10794 10795 10795 10795 10795 10795 10795 10795 10795 10795 10794 10794 10795 10795 10795 10795 10795 10796 10796 10796
10720 10722 10724 10726 10728 10730 10732 10733 10735 10737 10739 10740 10742 10744 10746 10748 10750 10751 10753 10755 10756 10758 10760 10761 10763 10764 10766 10768 10769 10771 10772 10771 10772 10774 10775 10775 10776 10777 10778 10779 10780 10780 10781 10782 10782 10783 10783 10784 10784 10785 10785 10785 10786 10786 10787 10788 10788 10788 10788 10789 10790 10790 10790 10790 10791 10791 10791 10791 10792 10792 10793 10793 10792 10792 10791 10791 10792 10792 10791 10791 10792 10792 10792 10792 10792 10792 10792 10792
10714 10717 10719 10721 10723 10725 10727 10728 10730 10732 10734 10735 10737 10739 10741 10743 10745 10747 10749 10750 10752 10754 10756 10757 10759 10760 10762 10764 10766 10767 10767 10767 10768 10770 10771 10772 10772 10773 10774 10775 10776 10777 10778 10778 10779 10780 10780 10780 10781 10782 10782 10782 10782 10783 10783 10785 10784 10785 10786 10786 10787 10787 10787 10788 10787 10788 10788 10788 10788 10789 10791 10790 10789 10789 10787 10788 10789 10788 10788 10789 10789 10790 10789 10789 10789 10789 10788 10788
10710 10712 10714 10716 10718 10720 10722 10723 10725 10727 10729 10731 10733 10735 10737 10738 10740 10742 10744 10746 10747 10749 10751 10753 10754 10756 10758 10760 10762 10762 10762 10763 10766 10765 10766 10768 10768 10770 10771 10771 10772 10773 10774 10775 10775 10776 10776 10777 10777 10778 10779 10778 10779 10780 10780 10781 10781 10782 10783 10783 10783 10784 10784 10785 10784 10784 10784 10784 10785 10786 10788 10787 10787 10787 10784 10784 10786 10785 10785 10785 10786 10786 10786 10787 10786 10786 10785 10785
10705 10706 10709 10711 10713 10715 10716 10719 10721 10723 10724 10726 10728 10730 10732 10733 10735 10737 10739 10740 10742 10744 10746 10748 10750 10751 10753 10755 10757 10757 10756 10760 10762 10760 10762 10763 10764 10766 10767 10768 10769 10769 10770 10771 10771 10772 10773 10773 10773 10775 10775 10774 10776 10776 10776 10777 10778 10778 10779 10780 10780 10781 10781 10781 10780 10780 10780 10781 10782 10784 10785 10784 10783 10783 10781 10781 10782 10782 10782 10782 10782 10783 10783 10783 10783 10783 10782 10782
10699 10702 10704 10706 10708 10710 10712 10714 10716 10718 10719 10721 10723 10725 10727 10729 10730 10732 10733 10735 10737 10739 10741 10742 10745 10747 10748 10751 10752 10751 10752 10756 10757 10756 10757 10759 10760 10762 10762 10763 10764 10765 10766 10767 10767 10768 10769 10769 10770 10771 10771 10771 10772 10771 10772 10774 10774 10774 10776 10776 10776 10777 10778 10777 10776 10776 10777 10777 10778 10781 10782 10780 10779 10779 10778 10779 10779 10779 10779 10779 10779 10779 10779 10780 10779 10779 10779 10778
10694 10696 10698 10701 10703 10705 10707 10709 10711 10712 10714 10717 10719 10721 10722 10724 10726 10727 10729 10730 10732 10734 10735 10737 10740 10742 10744 10746 10746 10746 10748 10750 10752 10752 10752 10754 10756 10758 10758 10759 10759 10761 10762 10762 10763 10764 10765 10765 10766 10767 10767 10767 10768 10767 10768 10769 10769 10770 10772 10772 10772 10774 10775 10772 10771 10773 10774 10774 10775 10777 10778 10777 10776 10774 10775 10776 10776 10775 10775 10775 10776 10776 10776 10775 10775 10775 10775 10774
10689 10691 10693 10695 10697 10699 10702 10704 10705 10707 10709 10712 10714 10716 10718 10719 10721 10723 10724 10726 10727 10729 10731 10732 10735 10737 10739 10741 10740 10740 10743 10745 10747 10747 10748 10750 10752 10753 10753 10754 10755 10756 10757 10758 10759 10759 10760 10760 10761 10762 10762 10763 10764 10764 10764 10764 10764 10765 10768 10768 10768 10770 10770 10767 10766 10769 10771 10770 10771 10773 10774 10775 10772 10769 10770 10772 10772 10772 10772 10772 10772 10772 10772 10771 10771 10770 10770 10770
10683 10685 10688 10690 10692 10694 10696 10698 10700 10702 10704 10707 10709 10711 10713 10714 10716 10718 10720 10721 10723 10724 10726 10728 10730 10732 10735 10736 10734 10734 10738 10741 10742 10742 10744 10746 10747 10747 10747 10749 10750 10751 10752 10753 10754 10755 10755 10756 10757 10758 10758 10758 10760 10759 10759 10760 10760 10760 10764 10765 10764 10763 10764 10764 10764 10764 10766 10766 10767 10769 10770 10771 10769 10766 10766 10767 10768 10769 10768 10768 10768 10768 10768 10767 10767 10766 10766 10766
10676 10678 10681 10684 10686 10689 10691 10692 10694 10696 10699 10701 10703 10705 10707 10709 10711 10713 10715 10716 10718 10720 10722 10724 10725 10727 10730 10731 10729 10729 10733 10736 10736 10738 10741 10741 10741 10742 10741 10744 10745 10746 10748 10748 10749 10750 10750 10751 10752 10753 10754 10753 10754 10754 10754 10757 10756 10756 10761 10761 10758 10757 10759 10762 10761 10759 10760 10761 10762 10765 10766 10767 10765 10763 10761 10762 10763 10765 10765 10765 10764 10764 10764 10763 10762 10762 10762 10762
10670 10672 10674 10677 10680 10683 10685 10686 10688 10691 10693 10695 10697 10699 10701 10704 10705 10707 10709 10711 10713 10714 10716 10718 10719 10721 10726 10726 10724 10725 10728 10730 10733 10734 10735 10736 10736 10736 10737 10739 10740 10741 10743 10743 10744 10745 10744 10747 10748 10749 10750 10747 10747 10748 10751 10753 10752 10753 10757 10754 10751 10753 10755 10756 10758 10756 10754 10755 10758 10761 10761 10762 10762 10759 10757 10757 10758 10760 10761 10760 10760 10760 10760 10759 10759 10758 10758 10758
10663 10666 10668 10671 10674 10676 10678 10680 10682 10684 10686 10689 10691 10694 10695 10698 10699 10702 10704 10705 10707 10709 10710 10712 10713 10716 10721 10721 10721 10721 10721 10725 10728 10728 10729 10730 10731 10732 10733 10734 10735 10735 10737 10738 10738 10739 10740 10743 10744 10745 10744 10740 10739 10744 10748 10748 10747 10751 10751 10748 10747 10747 10749 10751 10754 10753 10749 10750 10753 10757 10757 10756 10758 10756 10754 10753 10754 10756 10757 10755 10755 10756 10755 10754 10754 10754 10754 10754
10656 10659 10661 10664 10667 10669 10672 10674 10676 10678 10680 10683 10686 10688 10689 10691 10694 10696 10698 10699 10702 10703 10703 10706 10708 10712 10716 10717 10716 10716 10715 10718 10722 10722 10723 10725 10726 10728 10728 10729 10729 10730 10732 10732 10732 10734 10736 10739 10740 10739 10735 10732 10736 10741 10743 10742 10744 10747 10745 10744 10744 10742 10742 10744 10748 10750 10747 10746 10748 10751 10753 10751 10751 10752 10751 10749 10749 10751 10752 10750 10750 10751 10750 10749 10749 10749 10749 10750
10650 10652 10655 10658 10660 10663 10665 10667 10670 10672 10674 10677 10680 10682 10684 10686 10688 10690 10692 10693 10695 10695 10697 10703 10704 10705 10711 10712 10711 10710 10709 10712 10716 10717 10718 10720 10722 10722 10722 10724 10724 10724 10726 10725 10728 10730 10730 10734 10736 10731 10727 10728 10734 10736 10736 10737 10740 10741 10738 10738 10741 10740 10737 10736 10742 10746 10743 10744 10745 10745 10747 10747 10745 10748 10749 10745 10744 10747 10747 10746 10746 10746 10745 10744 10745 10745 10745 10745
10643 10645 10649 10652 10654 10656 10658 10661 10664 10666 10669 10672 10675 10676 10679 10680 10681 10684 10686 10686 10688 10690 10693 10698 10698 10700 10705 10707 10704 10704 10705 10708 10710 10712 10713 10714 10716 10717 10717 10718 10719 10719 10718 10719 10725 10725 10724 10730 10730 10723 10722 10726 10730 10730 10729 10731 10734 10734 10733 10733 10735 10735 10732 10731 10736 10740 10738 10740 10742 10741 10742 10743 10740 10742 10745 10741 10738 10742 10743 10742 10742 10740 10740 10740 10739 10740 10740 10740
10635 10638 10641 10644 10647 10650 10652 10656 10658 10660 10663 10667 10669 10670 10671 10672 10673 10677 10679 10680 10683 10685 10688 10690 10693 10696 10698 10700 10701 10700 10701 10703 10705 10706 10707 10709 10710 10711 10712 10711 10713 10712 10711 10715 10720 10718 10718 10724 10723 10718 10720 10722 10722 10723 10725 10725 10727 10728 10728 10728 10728 10728 10727 10727 10730 10733 10734 10734 10735 10736 10738 10739 10736 10736 10738 10736 10734 10736 10736 10737 10737 10735 10735 10735 10734 10734 10735 10735
10628 10631 10633 10637 10640 10642 10646 10650 10652 10655 10658 10661 10661 10662 10663 10664 10666 10668 10670 10674 10678 10679 10682 10685 10688 10691 10692 10696 10697 10694 10696 10699 10700 10700 10701 10704 10704 10703 10705 10705 10705 10705 10706 10711 10712 10711 10715 10717 10716 10715 10716 10716 10714 10716 10720 10721 10721 10722 10722 10723 10723 10721 10720 10722 10724 10727 10729 10728 10729 10731 10733 10734 10732 10731 10732 10730 10730 10731 10730 10731 10731 10730 10730 10729 10729 10729 10729 10729
10621 10623 10626 10630 10632 10636 10640 10643 10648 10650 10651 10653 10653 10653 10655 10656 10658 10660 10661 10666 10672 10674 10677 10679 10683 10687 10688 10691 10690 10688 10692 10694 10695 10695 10694 10695 10695 10695 10699 10699 10697 10699 10702 10704 10703 10706 10711 10710 10712 10712 10709 10708 10709 10710 10713 10715 10715 10716 10715 10716 10717 10715 10714 10716 10719 10723 10724 10722 10723 10724 10728 10731 10726 10725 10727 10724 10723 10724 10723 10725 10725 10724 10724 10723 10724 10724 10724 10723
10613 10615 10619 10622 10626 10630 10631 10637 10644 10642 10642 10646 10645 10644 10646 10649 10650 10651 10653 10656 10666 10672 10672 10673 10677 10681 10683 10686 10685 10682 10685 10689 10689 10691 10688 10686 10687 10688 10691 10692 10692 10693 10694 10696 10698 10702 10705 10705 10707 10708 10703 10700 10702 10706 10707 10706 10707 10709 10709 10710 10710 10709 10709 10709 10712 10718 10720 10718 10717 10717 10721 10727 10722 10719 10722 10717 10715 10718 10717 10718 10719 10718 10718 10718 10718 10718 10717 10717
10605 10608 10612 10615 10619 10622 10625 10633 10635 10631 10636 10639 10635 10635 10639 10642 10641 10643 10644 10645 10660 10671 10669 10668 10670 10674 10679 10681 10679 10673 10678 10686 10684 10684 10683 10678 10679 10681 10682 10685 10686 10687 10687 10688 10694 10698 10700 10699 10698 10701 10701 10696 10696 10699 10700 10699 10699 10702 10705 10704 10704 10703 10702 10704 10705 10711 10715 10712 10713 10713 10713 10719 10719 10715 10714 10710 10708 10712 10712 10711 10712 10712 10712 10712 10712 10711 10711 10710
10597 10601 10604 10607 10612 10616 10619 10625 10623 10625 10631 10628 10626 10628 10632 10634 10632 10636 10635 10634 10655 10671 10667 10665 10665 10668 10673 10673 10670 10665 10672 10682 10677 10675 10676 10671 10671 10672 10675 10679 10680 10681 10679 10680 10690 10695 10693 10691 10691 10695 10696 10692 10692 10691 10691 10693 10693 10695 10698 10697 10698 10699 10696 10697 10698 10703 10708 10707 10709 10711 10708 10710 10714 10709 10707 10706 10703 10704 10705 10704 10704 10705 10706 10706 10705 10705 10704 10704
10589 10592 10595 10600 10605 10608 10611 10614 10616 10621 10622 10618 10618 10621 10623 10624 10624 10628 10624 10625 10653 10669 10662 10661 10659 10659 10664 10664 10662 10661 10667 10674 10669 10668 10668 10664 10664 10667 10669 10673 10673 10675 10673 10674 10685 10689 10685 10686 10687 10687 10688 10688 10688 10686 10685 10686 10687 10690 10691 10690 10691 10692 10692 10691 10692 10694 10698 10702 10707 10707 10701 10701 10707 10703 10700 10703 10700 10697 10697 10697 10698 10699 10700 10699 10698 10698 10698 10698
10580 10583 10587 10591 10595 10599 10601 10607 10613 10613 10610 10608 10610 10612 10614 10614 10616 10617 10612 10622 10653 10662 10655 10655 10653 10652 10654 10655 10657 10657 10659 10663 10663 10662 10660 10656 10659 10661 10664 10665 10665 10669 10670 10670 10677 10680 10680 10682 10681 10680 10682 10683 10683 10681 10679 10679 10682 10684 10683 10683 10683 10684 10686 10685 10687 10688 10690 10699 10703 10698 10690 10690 10699 10701 10697 10698 10695 10690 10690 10691 10692 10693 10692 10692 10692 10692 10691 10691
10571 10575 10579 10582 10588 10592 10595 10603 10607 10601 10598 10599 10600 10602 10603 10603 10607 10605 10604 10626 10648 10649 10647 10648 10646 10646 10646 10646 10649 10649 10650 10653 10655 10656 10653 10652 10653 10653 10657 10659 10657 10662 10666 10667 10670 10671 10673 10676 10676 10676 10677 10676 10676 10676 10674 10673 10675 10676 10674 10675 10675 10677 10679 10680 10682 10683 10686 10695 10694 10686 10680 10681 10694 10700 10694 10692 10687 10682 10685 10684 10684 10686 10685 10685 10685 10684 10684 10684
10563 10567 10571 10576 10582 10585 10589 10596 10596 10590 10587 10589 10590 10592 10593 10595 10595 10593 10605 10629 10636 10634 10640 10642 10642 10644 10640 10639 10641 10640 10643 10647 10648 10648 10646 10646 10647 10647 10650 10652 10651 10652 10658 10663 10664 10664 10665 10667 10670 10671 10670 10670 10669 10668 10668 10667 10667 10667 10667 10668 10668 10670 10673 10675 10677 10678 10681 10687 10683 10677 10674 10677 10691 10694 10685 10685 10680 10674 10678 10678 10677 10679 10679 10678 10678 10677 10677 10677
10555 10559 10563 10569 10573 10576 10582 10586 10585 10579 10576 10579 10580 10581 10583 10582 10581 10589 10612 10624 10620 10626 10636 10636 10639 10640 10635 10634 10634 10633 10636 10639 10639 10639 10638 10639 10641 10642 10644 10646 10646 10645 10650 10657 10657 10657 10660 10661 10661 10664 10665 10663 10660 10659 10661 10661 10659 10660 10661 10663 10663 10664 10666 10670 10672 10671 10673 10676 10673 10672 10671 10675 10686 10684 10674 10677 10674 10667 10671 10673 10671 10672 10671 10671 10670 10670 10670 10670
10546 10550 10554 10560 10564 10569 10573 10574 10572 10568 10567 10570 10571 10572 10573 10569 10574 10594 10610 10610 10609 10620 10629 10628 10631 10633 10630 10629 10629 10628 10627 10628 10631 10631 10630 10632 10635 10638 10640 10642 10642 10641 10642 10646 10650 10652 10655 10656 10654 10656 10657 10654 10652 10653 10653 10653 10653 10655 10656 10656 10657 10658 10660 10664 10664 10662 10664 10667 10668 10668 10669 10673 10678 10671 10664 10669 10669 10663 10664 10665 10664 10664 10664 10663 10663 10663 10663 10663
10537 10540 10545 10551 10555 10558 10560 10561 10563 10561 10560 10561 10560 10563 10560 10557 10574 10595 10599 10598 10602 10611 10619 10621 10620 10623 10624 10623 10623 10623 10618 10619 10624 10623 10622 10626 10629 10633 10636 10637 10637 10636 10634 10636 10643 10647 10646 10649 10649 10648 10647 10647 10647 10646 10646 10647 10649 10650 10649 10649 10653 10653 10652 10652 10653 10655 10657 10660 10663 10663 10664 10668 10668 10662 10658 10660 10662 10659 10657 10656 10656 10657 10657 10657 10657 10657 10657 10656
10528 10530 10536 10539 10543 10548 10551 10554 10555 10551 10550 10552 10551 10550 10547 10553 10576 10590 10589 10592 10594 10598 10608 10611 10609 10612 10617 10617 10618 10616 10611 10613 10617 10614 10615 10619 10623 10628 10632 10632 10631 10629 10628 10627 10632 10637 10637 10640 10644 10642 10641 10641 10641 10639 10640 10643 10645 10644 10643 10645 10649 10646 10640 10640 10646 10650 10650 10653 10659 10659 10658 10658 10658 10657 10654 10652 10653 10652 10649 10648 10647 10649 10650 10650 10650 10650 10649 10649
10517 10519 10523 10526 10534 10542 10543 10545 10545 10540 10540 10542 10538 10535 10541 10558 10574 10577 10577 10581 10582 10587 10595 10598 10598 10602 10607 10611 10614 10611 10606 10607 10609 10609 10610 10613 10617 10623 10625 10627 10623 10619 10621 10621 10620 10624 10628 10633 10638 10639 10637 10636 10634 10632 10633 10638 10641 10640 10639 10640 10639 10634 10632 10634 10639 10642 10642 10647 10655 10654 10651 10649 10649 10653 10651 10645 10643 10642 10641 10642 10642 10643 10643 10641 10641 10641 10641 10640
10505 10508 10510 10516 10526 10531 10532 10536 10535 10529 10529 10529 10524 10526 10540 10556 10562 10563 10567 10570 10572 10578 10582 10585 10589 10593 10598 10602 10607 10606 10600 10600 10603 10605 10606 10606 10610 10616 10616 10616 10614 10612 10614 10612 10610 10614 10620 10627 10633 10633 10632 10630 10627 10625 10627 10632 10636 10635 10632 10630 10627 10626 10628 10629 10631 10635 10634 10639 10647 10647 10645 10643 10643 10646 10643 10638 10637 10635 10634 10636 10637 10636 10634 10632 10632 10632 10631 10631
10497 10497 10499 10507 10516 10518 10521 10526 10524 10519 10519 10516 10512 10519 10534 10546 10551 10554 10557 10559 10563 10567 10569 10575 10580 10584 10588 10592 10598 10599 10593 10593 10598 10599 10599 10600 10603 10607 10606 10606 10607 10607 10605 10602 10603 10608 10611 10617 10624 10627 10626 10624 10619 10619 10622 10624 10627 10626 10623 10622 10620 10622 10624 10622 10623 10628 10628 10631 10637 10639 10638 10638 10638 10636 10634 10632 10631 10630 10629 10630 10629 10627 10625 10625 10624 10623 10622 10622
10486 10484 10489 10499 10504 10506 10511 10515 10513 10508 10504 10502 10503 10513 10528 10538 10541 10542 10545 10549 10553 10555 10560 10567 10570 10572 10577 10582 10588 10590 10586 10587 10592 10592 10592 10593 10595 10598 10598 10598 10600 10600 10597 10595 10598 10601 10600 10605 10614 10619 10619 10616 10614 10615 10616 10615 10615 10615 10616 10618 10618 10617 10617 10615 10616 10619 10620 10623 10627 10628 10629 10632 10630 10626 10626 10627 10626 10624 10624 10622 10621 10619 10617 10616 10616 10615 10614 10614
10474 10473 10481 10489 10491 10497 10502 10502 10498 10492 10489 10491 10499 10511 10522 10526 10527 10531 10536 10540 10542 10546 10553 10558 10557 10560 10567 10573 10577 10580 10579 10581 10584 10585 10585 10585 10586 10591 10592 10592 10593 10592 10590 10590 10592 10591 10591 10595 10601 10607 10610 10610 10611 10611 10608 10606 10607 10608 10611 10613 10612 10610 10608 10609 10611 10612 10611 10613 10616 10616 10619 10623 10623 10621 10623 10622 10620 10618 10615 10614 10613 10610 10608 10607 10607 10607 10607 10607
10462 10463 10473 10478 10478 10486 10490 10485 10482 10480 10480 10486 10497 10508 10513 10514 10518 10525 10527 10529 10533 10539 10545 10546 10547 10551 10557 10561 10566 10571 10572 10573 10575 10575 10577 10578 10580 10583 10585 10586 10585 10584 10583 10585 10586 10582 10580 10583 10588 10596 10602 10604 10604 10603 10600 10598 10600 10602 10604 10606 10605 10604 10600 10600 10605 10604 10599 10600 10604 10605 10612 10619 10618 10617 10618 10616 10613 10610 10606 10605 10604 10600 10598 10598 10599 10599 10599 10600
10450 10453 10464 10467 10466 10473 10476 10471 10472 10472 10474 10484 10495 10501 10503 10504 10510 10516 10517 10519 10523 10530 10534 10536 10539 10543 10546 10549 10555 10560 10562 10564 10565 10565 10568 10572 10572 10572 10577 10579 10578 10578 10576 10577 10579 10575 10569 10570 10578 10585 10591 10593 10594 10595 10594 10593 10595 10596 10598 10599 10597 10595 10593 10590 10592 10592 10589 10594 10598 10596 10604 10615 10613 10610 10610 10608 10605 10602 10599 10598 10594 10590 10589 10589 10589 10590 10590 10590
10439 10445 10455 10458 10457 10462 10462 10459 10461 10463 10469 10482 10487 10486 10488 10494 10500 10504 10508 10511 10515 10520 10526 10528 10530 10533 10535 10538 10542 10548 10551 10553 10556 10558 10560 10562 10563 10564 10569 10572 10572 10570 10568 10568 10570 10567 10561 10562 10568 10572 10578 10584 10588 10589 10589 10588 10588 10588 10590 10588 10584 10584 10584 10580 10581 10583 10584 10591 10592 10586 10595 10607 10606 10601 10599 10598 10596 10594 10591 10591 10587 10583 10582 10581 10580 10580 10580 10581
10430 10436 10443 10447 10448 10448 10447 10449 10452 10456 10464 10474 10474 10474 10479 10486 10491 10496 10501 10504 10506 10509 10514 10517 10520 10522 10524 10526 10530 10534 10538 10542 10547 10551 10552 10553 10556 10558 10560 10563 10563 10561 10560 10559 10559 10558 10556 10556 10558 10560 10567 10577 10582 10583 10582 10579 10577 10577 10579 10577 10576 10577 10574 10574 10576 10572 10576 10587 10584 10578 10587 10596 10594 10590 10588 10588 10587 10584 10581 10581 10580 10577 10575 10574 10572 10572 10572 10573
10421 10426 10431 10436 10437 10435 10436 10441 10446 10449 10455 10461 10463 10467 10472 10475 10480 10487 10491 10494 10495 10498 10502 10506 10510 10512 10512 10514 10518 10522 10528 10534 10538 10540 10544 10547 10549 10550 10551 10552 10551 10550 10551 10550 10549 10550 10549 10548 10550 10553 10559 10568 10572 10571 10570 10568 10566 10567 10570 10570 10570 10568 10565 10567 10567 10563 10572 10581 10573 10570 10579 10582 10580 10579 10578 10578 10576 10573 10572 10571 10570 10570 10568 10566 10564 10563 10564 10564
10410 10413 10419 10424 10426 10425 10427 10433 10438 10440 10445 10449 10453 10459 10462 10465 10470 10474 10479 10484 10487 10488 10491 10495 10499 10501 10502 10505 10509 10513 10519 10523 10524 10526 10534 10539 10540 10540 10541 10540 10538 10539 10542 10540 10539 10541 10540 10541 10545 10548 10551 10556 10558 10557 10559 10560 10559 10560 10562 10560 10560 10561 10557 10555 10556 10561 10569 10566 10559 10565 10568 10566 10569 10570 10566 10566 10565 10562 10562 10561 10560 10561 10559 10556 10555 10553 10553 10554
10398 10402 10410 10415 10416 10416 10419 10423 10428 10433 10438 10441 10444 10450 10454 10457 10461 10462 10466 10473 10478 10480 10481 10483 10487 10491 10495 10499 10501 10503 10507 10509 10510 10516 10523 10528 10529 10530 10530 10530 10528 10530 10533 10532 10530 10531 10531 10535 10540 10540 10541 10546 10545 10544 10548 10552 10553 10553 10552 10551 10552 10552 10550 10546 10549 10558 10558 10547 10551 10561 10555 10550 10558 10558 10553 10556 10554 10550 10551 10551 10550 10549 10547 10547 10546 10543 10543 10545
10388 10395 10402 10405 10406 10407 10412 10417 10421 10426 10431 10431 10434 10440 10444 10447 10450 10452 10457 10462 10466 10469 10469 10470 10478 10484 10488 10491 10490 10490 10494 10496 10501 10509 10513 10515 10517 10518 10519 10520 10520 10522 10524 10523 10523 10522 10522 10529 10533 10529 10531 10538 10536 10535 10539 10541 10543 10545 10545 10544 10544 10542 10542 10540 10543 10549 10543 10536 10545 10550 10541 10541 10546 10541 10541 10545 10543 10540 10541 10540 10538 10536 10535 10536 10535 10532 10533 10534
10380 10387 10390 10393 10396 10400 10407 10412 10411 10413 10418 10419 10422 10428 10434 10439 10443 10446 10449 10450 10453 10458 10459 10461 10469 10474 10477 10480 10480 10480 10483 10487 10493 10499 10499 10499 10504 10507 10509 10511 10512 10513 10513 10513 10514 10514 10514 10521 10524 10519 10521 10529 10528 10528 10531 10530 10531 10535 10536 10538 10539 10537 10534 10532 10535 10538 10531 10527 10535 10535 10530 10534 10533 10526 10529 10534 10531 10529 10528 10528 10527 10525 10523 10522 10521 10521 10521 10520
10370 10377 10379 10382 10386 10392 10399 10401 10398 10400 10406 10408 10411 10419 10426 10432 10436 10439 10440 10441 10444 10448 10450 10454 10461 10464 10465 10467 10466 10469 10475 10478 10481 10485 10485 10487 10493 10497 10498 10501 10502 10503 10504 10504 10505 10505 10505 10511 10515 10511 10510 10517 10520 10519 10520 10520 10521 10524 10527 10533 10535 10532 10527 10524 10527 10527 10519 10517 10524 10520 10516 10525 10524 10516 10517 10519 10518 10516 10515 10516 10516 10513 10510 10509 10508 10508 10507 10504
10359 10365 10368 10370 10375 10382 10387 10389 10388 10391 10395 10397 10403 10412 10418 10424 10431 10432 10430 10431 10434 10436 10440 10447 10451 10451 10451 10451 10454 10461 10466 10465 10466 10470 10473 10477 10482 10485 10486 10490 10493 10493 10495 10496 10496 10497 10497 10500 10505 10502 10499 10507 10512 10508 10508 10510 10508 10510 10523 10532 10528 10520 10517 10517 10518 10516 10509 10509 10511 10506 10505 10513 10513 10505 10504 10505 10505 10504 10503 10504 10502 10501 10500 10498 10495 10494 10491 10489
10347 10352 10356 10359 10364 10369 10374 10378 10379 10380 10384 10390 10398 10404 10409 10416 10420 10418 10417 10422 10427 10428 10431 10438 10440 10438 10438 10441 10447 10453 10452 10450 10453 10459 10463 10467 10471 10474 10476 10481 10484 10484 10486 10488 10487 10489 10490 10490 10494 10492 10488 10496 10501 10498 10497 10496 10492 10502 10522 10526 10514 10505 10507 10509 10509 10507 10503 10501 10499 10497 10499 10500 10497 10495 10495 10492 10491 10490 10490 10489 10488 10489 10489 10486 10482 10480 10478 10476